Location: Bonny Doon Airfield
(37.0704°N, 122.1252°W)
Time: 17:52:47
(UTC-08:00)

Vanguard 1 Rocket - Visible Passes

Search period start: 24 February 2018 00:00
Search period end: 06 March 2018 00:00
Orbit: 655 x 4222 km, 34.3° (Epoch: 23 February)

Date Brightness Start Highest point End Pass type
(mag) Time Alt. Az. Time Alt. Az. Time Alt. Az.
24 Feb 10.3 02:49:55 72° SSW 02:50:37 73° SSW 03:11:49 10° ESE visible
24 Feb 10.6 05:07:14 24° W 05:20:43 40° SW 05:36:04 10° SSE visible
24 Feb 10.1 20:17:31 10° SSW 20:31:02 48° SE 20:35:04 44° ESE visible
24 Feb 10.4 22:42:11 10° WSW 23:25:35 14° E 23:27:46 10° E visible
25 Feb 10.6 01:42:53 59° ESE 01:42:53 59° ESE 01:59:08 10° ESE visible
25 Feb 10.4 04:00:12 46° WSW 04:07:28 54° SW 04:25:54 10° SE visible
25 Feb 11.0 06:20:39 10° W 06:34:39 20° SW 06:45:27 10° SSW visible
25 Feb 10.3 19:08:18 10° S 19:19:07 32° SE 19:28:25 22° E visible
25 Feb 10.0 21:30:43 10° SW 21:45:44 69° S 21:45:44 69° S visible
25 Feb 11.0 23:57:39 10° W 00:35:56 33° E 00:45:24 10° E visible
26 Feb 10.3 02:53:15 67° SSW 02:53:15 67° SSW 03:14:32 10° SE visible
26 Feb 10.7 05:10:34 23° W 05:22:38 33° SW 05:37:50 10° S visible
26 Feb 9.9 20:20:07 10° SW 20:33:22 55° SE 20:39:02 46° ESE visible
26 Feb 10.3 22:45:17 10° WSW 23:29:03 13° E 23:30:40 10° E visible
27 Feb 10.6 01:46:23 55° SE 01:46:23 55° SE 02:01:59 10° ESE visible
27 Feb 10.5 04:03:42 43° WSW 04:09:35 48° SW 04:28:08 10° SSE visible
27 Feb 10.0 19:10:29 10° SSW 19:21:16 38° SE 19:32:16 22° E visible
27 Feb 9.9 21:33:43 10° WSW 21:49:20 74° SSE 21:49:36 74° SSE visible
28 Feb 11.0 00:00:48 10° W 00:39:36 31° ESE 00:48:18 10° ESE visible
28 Feb 10.4 02:56:56 60° SSW 02:56:56 60° SSW 03:17:02 10° SE visible
28 Feb 10.9 05:14:15 21° W 05:24:28 27° SW 05:39:07 10° S visible
28 Feb 9.8 20:22:55 10° SW 20:35:51 62° SSE 20:42:45 46° E visible
28 Feb 10.3 22:48:27 10° W 23:32:53 11° E 23:33:33 10° E visible
01 Mar 10.7 01:16:58 10° W 01:50:13 50° SE 02:04:41 10° ESE visible
01 Mar 10.6 04:07:34 39° WSW 04:11:34 41° SW 04:30:03 10° SSE visible
01 Mar 9.8 19:12:59 10° SSW 19:23:34 45° SE 19:35:51 22° E visible
01 Mar 9.9 21:36:49 10° WSW 21:52:08 78° SSE 21:53:10 77° SE visible
02 Mar 10.9 00:03:57 10° W 00:43:35 27° ESE 00:51:07 10° ESE visible
02 Mar 10.5 03:00:55 52° SSW 03:00:55 52° SSW 03:19:18 10° SE visible
02 Mar 11.1 05:18:17 18° WSW 05:26:17 21° SW 05:39:41 10° SSW visible
02 Mar 10.0 18:04:07 10° S 18:12:22 28° SE 18:25:49 10° E visible
02 Mar 9.7 20:25:54 10° WSW 20:38:31 68° SSE 20:46:10 46° E visible
02 Mar 10.2 22:51:39 10° W 23:36:59 - E 23:03:29 59° WSW visible
03 Mar 10.8 01:20:03 10° W 01:54:20 43° SE 02:07:12 10° SE visible
03 Mar 10.8 04:11:41 34° SW 04:13:29 34° SW 04:31:33 10° S visible
03 Mar 9.6 19:15:43 10° SW 19:26:04 53° SE 19:39:08 22° E visible
03 Mar 9.8 21:40:01 10° WSW 21:55:01 81° S 21:56:26 78° SE visible
04 Mar 10.9 00:07:06 10° W 00:47:47 23° ESE 00:53:48 10° ESE visible
04 Mar 10.7 03:05:08 44° SSW 03:05:08 44° SSW 03:21:17 10° SSE visible
04 Mar 11.2 05:22:29 14° WSW 05:28:07 16° SW 05:38:52 10° SSW visible
04 Mar 9.8 18:06:24 10° SSW 18:14:41 35° SE 18:29:07 10° E visible
04 Mar 9.6 20:29:00 10° WSW 20:41:20 74° SSE 20:49:19 46° E visible
04 Mar 10.2 22:54:53 10° W 23:41:15 - ESE 23:06:36 59° W visible
05 Mar 11.0 01:23:10 10° WNW 01:58:35 36° SSE 02:09:29 10° SE visible
05 Mar 11.0 04:15:57 28° SW 04:15:57 28° SW 04:32:31 10° S visible
05 Mar 9.5 19:18:38 10° SW 19:28:43 60° SSE 19:42:09 22° E visible
05 Mar 9.8 21:43:16 10° W 21:57:59 82° S 21:59:25 79° SE visible
